Location: Kearney
(40.6990°N, 99.0810°W)
Time: 13:47:46
(UTC-06:00)

Abrixas rocket - Pass Details

Date: 18 December 2017
Orbit: 388 x 401 km, 48.4° (Epoch: 22 January)

Event Time Altitude Azimuth Distance (km) Brightness Sun altitude
Rises 19:01:36 0° 300° (WNW) 2,307 6.7 -20.2°
Reaches altitude 10° 19:03:56 10° 315° (NW) 1,445 5.4 -20.6°
Enters shadow 19:05:29 20° 339° (NNW) 997 4.2 -20.9°
